Zurück zum Katalog

COSMOS 2251 DEB

AktivLEO
NORAD 38483·DEBRIS·🇷🇺 Russia

Gestartet Jun 16, 1993 von Plesetsk Cosmodrome

Loading…

Nächste Überflüge (nächste 24 Stunden)

TLE

VeraltetSource: Space-Track

Epoche: Aug 29, 2026, 10:02 UTC

1 38483U 93036BTT 26241.41833115  .00001239  00000-0  45784-3 0  9994
2 38483  74.2581 266.4647 0114766 293.5756  65.3375 14.29831528671884

Verfolge COSMOS 2251 DEB in Echtzeit mit AllMySat

Download on the App Store